This demonstration page uses our WeatherBlox Daily Observations layout. Learn more.

Left ArrowRight Arrow

39.95238, -75.16362

Hourly Observations for August 20, 2022

Temp ( °F °C ) Dew Point ( °F °C ) Humidity (%) Winds ( mph kmh ) Pressure ( in mb ) Visibility ( mi km ) Precip ( " mm )
12:54 am 00:54 Mostly Cloudy 78 25.6 66 18.9 67 67 S 5 7 30.12 1020 10 16 0.00 0.00
1:54 am 01:54 Mostly Cloudy 78 25.6 66 18.9 67 67 SW 7 11 30.13 1020 10 16 0.00 0.00
2:54 am 02:54 Mostly Cloudy 78 25.6 67 19.4 69 69 SSW 6 9 30.13 1020 10 16 0.00 0.00
3:54 am 03:54 Mostly Cloudy 77 25 67 19.4 71 71 S 6 9 30.13 1020 10 16 0.00 0.00
4:54 am 04:54 Mostly Cloudy 76 24.4 67 19.4 74 74 S 5 7 30.13 1020 10 16 0.00 0.00
5:54 am 05:54 Mostly Cloudy 75 23.9 68 20 79 79 Calm 30.13 1020 10 16 0.00 0.00
6:54 am 06:54 Mostly Cloudy 74 23.3 68 20 82 82 SSE 3 6 30.15 1021 10 16 0.00 0.00
7:54 am 07:54 Mostly Cloudy 75 23.9 68 20 79 79 S 3 6 30.16 1022 10 16 0.00 0.00
8:54 am 08:54 Partly Cloudy 77 25 68 20 74 74 SSW 5 7 30.18 1022 10 16 0.00 0.00
9:54 am 09:54 Partly Cloudy 80 26.7 68 20 67 67 Calm 30.18 1022 10 16 0.00 0.00
10:54 am 10:54 Partly Cloudy 84 28.9 67 19.4 57 57 S 5 7 30.18 1022 10 16 0.00 0.00
11:54 am 11:54 Partly Cloudy 87 30.6 66 18.9 50 50 SE 7 11 30.16 1022 10 16 0.00 0.00
12:54 pm 12:54 Partly Cloudy 87 30.6 64 17.8 46 46 S 5 7 30.15 1021 10 16 0.00 0.00
1:54 pm 13:54 Partly Cloudy 90 32.2 63 17.2 41 41 SSW 8 13 30.13 1020 10 16 0.00 0.00
2:54 pm 14:54 Partly Cloudy 92 33.3 64 17.8 40 40 SSW 12 19 30.12 1020 10 16 0.00 0.00
3:54 pm 15:54 Partly Cloudy 91 32.8 60 15.6 36 36 W 14 22 30.11 1020 10 16 0.00 0.00
4:54 pm 16:54 Mostly Sunny 91 32.8 59 15 34 34 WSW 15 24 30.11 1020 10 16 0.00 0.00
5:54 pm 17:54 Partly Cloudy 89 31.7 61 16.1 39 39 S 14 22 30.11 1020 10 16 0.00 0.00
6:54 pm 18:54 Sunny 87 30.6 60 15.6 40 40 SSW 9 15 30.10 1019 10 16 0.00 0.00
7:54 pm 19:54 Partly Cloudy 84 28.9 61 16.1 46 46 S 10 17 30.11 1020 10 16 0.00 0.00
8:54 pm 20:54 Mostly Clear 81 27.2 61 16.1 51 51 SSW 7 11 30.13 1020 10 16 0.00 0.00
9:54 pm 21:54 Mostly Clear 79 26.1 63 17.2 58 58 SW 6 9 30.14 1021 10 16 0.00 0.00
10:54 pm 22:54 Mostly Clear 78 25.6 64 17.8 62 62 Calm 30.13 1020 10 16 0.00 0.00
11:54 pm 23:54 Mostly Clear 76 24.4 65 18.3 69 69 Calm 30.13 1020 10 16 0.00 0.00

Powered by AerisWeather